Year,Month,Day,Hour,Minute,Value (Times are PST for temperature in C)
2010,07,07,00,00,13.50
2010,07,07,00,01,13.40
2010,07,07,00,02,13.40
2010,07,07,00,03,13.40
2010,07,07,00,04,13.40
2010,07,07,00,05,13.40
2010,07,07,00,06,13.40
2010,07,07,00,07,13.40
2010,07,07,00,08,13.40
2010,07,07,00,09,13.40
2010,07,07,00,10,13.40
2010,07,07,00,11,13.40
2010,07,07,00,12,13.30
2010,07,07,00,13,13.30
2010,07,07,00,14,13.30
2010,07,07,00,15,13.30
2010,07,07,00,16,13.30
2010,07,07,00,17,13.30
2010,07,07,00,18,13.30
2010,07,07,00,19,13.30
2010,07,07,00,20,13.30
2010,07,07,00,21,13.30
2010,07,07,00,22,13.30
2010,07,07,00,23,13.30
2010,07,07,00,24,13.20
2010,07,07,00,25,13.20
2010,07,07,00,26,13.20
2010,07,07,00,27,13.20
2010,07,07,00,28,13.20
2010,07,07,00,29,13.20
2010,07,07,00,30,13.20
2010,07,07,00,31,13.20
2010,07,07,00,32,13.20
2010,07,07,00,33,13.20
2010,07,07,00,34,13.20
2010,07,07,00,35,13.20
2010,07,07,00,36,13.10
2010,07,07,00,37,13.10
2010,07,07,00,38,13.10
2010,07,07,00,39,13.10
2010,07,07,00,40,13.10
2010,07,07,00,41,13.10
2010,07,07,00,42,13.10
2010,07,07,00,43,13.10
2010,07,07,00,44,13.10
2010,07,07,00,45,13.10
2010,07,07,00,46,13.00
2010,07,07,00,47,13.00
2010,07,07,00,48,13.00
2010,07,07,00,49,13.00
2010,07,07,00,50,13.00
2010,07,07,00,51,13.00
2010,07,07,00,52,13.00
2010,07,07,00,53,13.00
2010,07,07,00,54,13.00
2010,07,07,00,55,13.00
2010,07,07,00,56,13.00
2010,07,07,00,57,13.00
2010,07,07,00,58,13.00
2010,07,07,00,59,13.00
2010,07,07,01,00,13.00
2010,07,07,01,01,13.00
2010,07,07,01,02,13.00
2010,07,07,01,03,13.00
2010,07,07,01,04,13.00
2010,07,07,01,05,13.00
2010,07,07,01,06,13.00
2010,07,07,01,07,13.00
2010,07,07,01,08,13.00
2010,07,07,01,09,13.00
2010,07,07,01,10,12.90
2010,07,07,01,11,12.90
2010,07,07,01,12,12.90
2010,07,07,01,13,12.90
2010,07,07,01,14,12.90
2010,07,07,01,15,12.90
2010,07,07,01,16,12.80
2010,07,07,01,17,12.80
2010,07,07,01,18,12.80
2010,07,07,01,19,12.80
2010,07,07,01,20,12.80
2010,07,07,01,21,12.80
2010,07,07,01,22,12.80
2010,07,07,01,23,12.80
2010,07,07,01,24,12.80
2010,07,07,01,25,12.80
2010,07,07,01,26,12.80
2010,07,07,01,27,12.80
2010,07,07,01,28,12.80
2010,07,07,01,29,12.80
2010,07,07,01,30,12.80
2010,07,07,01,31,12.80
2010,07,07,01,32,12.80
2010,07,07,01,33,12.80
2010,07,07,01,34,12.80
2010,07,07,01,35,12.80
2010,07,07,01,36,12.90
2010,07,07,01,37,12.90
2010,07,07,01,38,12.90
2010,07,07,01,39,12.90
2010,07,07,01,40,12.90
2010,07,07,01,41,12.90
2010,07,07,01,42,12.90
2010,07,07,01,43,12.90
2010,07,07,01,44,12.90
2010,07,07,01,45,12.90
2010,07,07,01,46,12.90
2010,07,07,01,47,12.90
2010,07,07,01,48,12.80
2010,07,07,01,49,12.80
2010,07,07,01,50,12.80
2010,07,07,01,51,12.80
2010,07,07,01,52,12.80
2010,07,07,01,53,12.80
2010,07,07,01,54,12.80
2010,07,07,01,55,12.80
2010,07,07,01,56,12.80
2010,07,07,01,57,12.80
2010,07,07,01,58,12.80
2010,07,07,01,59,12.80
2010,07,07,02,00,12.80
2010,07,07,02,01,12.80
2010,07,07,02,02,12.80
2010,07,07,02,03,12.80
2010,07,07,02,04,12.70
2010,07,07,02,05,12.70
2010,07,07,02,06,12.70
2010,07,07,02,07,12.70
2010,07,07,02,08,12.60
2010,07,07,02,09,12.60
2010,07,07,02,10,12.60
2010,07,07,02,11,12.60
2010,07,07,02,12,12.60
2010,07,07,02,13,12.60
2010,07,07,02,14,12.60
2010,07,07,02,15,12.60
2010,07,07,02,16,12.50
2010,07,07,02,17,12.50
2010,07,07,02,18,12.50
2010,07,07,02,19,12.50
2010,07,07,02,20,12.60
2010,07,07,02,21,12.60
2010,07,07,02,22,12.60
2010,07,07,02,23,12.60
2010,07,07,02,24,12.60
2010,07,07,02,25,12.70
2010,07,07,02,26,12.70
2010,07,07,02,27,12.70
2010,07,07,02,28,12.70
2010,07,07,02,29,12.70
2010,07,07,02,30,12.60
2010,07,07,02,31,12.60
2010,07,07,02,32,12.60
2010,07,07,02,33,12.60
2010,07,07,02,34,12.70
2010,07,07,02,35,12.70
2010,07,07,02,36,12.70
2010,07,07,02,37,12.70
2010,07,07,02,38,12.70
2010,07,07,02,39,12.70
2010,07,07,02,40,12.70
2010,07,07,02,41,12.70
2010,07,07,02,42,12.70
2010,07,07,02,43,12.70
2010,07,07,02,44,12.70
2010,07,07,02,45,12.70
2010,07,07,02,46,12.70
2010,07,07,02,47,12.70
2010,07,07,02,48,12.80
2010,07,07,02,49,12.80
2010,07,07,02,50,12.80
2010,07,07,02,51,12.80
2010,07,07,02,52,12.80
2010,07,07,02,53,12.80
2010,07,07,02,54,12.80
2010,07,07,02,55,12.80
2010,07,07,02,56,12.80
2010,07,07,02,57,12.70
2010,07,07,02,58,12.70
2010,07,07,02,59,12.70
2010,07,07,03,00,12.70
2010,07,07,03,01,12.70
2010,07,07,03,02,12.70
2010,07,07,03,06,12.60
2010,07,07,03,07,12.60
2010,07,07,03,08,12.60
2010,07,07,03,09,12.60
2010,07,07,03,10,12.60
2010,07,07,03,11,12.60
2010,07,07,03,12,12.70
2010,07,07,03,13,12.70
2010,07,07,03,14,12.70
2010,07,07,03,15,12.70
2010,07,07,03,16,12.70
2010,07,07,03,17,12.70
2010,07,07,03,18,12.60
2010,07,07,03,19,12.60
2010,07,07,03,20,12.60
2010,07,07,03,21,12.60
2010,07,07,03,22,12.60
2010,07,07,03,23,12.60
2010,07,07,03,24,12.60
2010,07,07,03,25,12.60
2010,07,07,03,26,12.60
2010,07,07,03,27,12.60
2010,07,07,03,28,12.60
2010,07,07,03,29,12.60
2010,07,07,03,30,12.60
2010,07,07,03,31,12.60
2010,07,07,03,32,12.60
2010,07,07,03,33,12.70
2010,07,07,03,34,12.70
2010,07,07,03,35,12.70
2010,07,07,03,36,12.70
2010,07,07,03,37,12.70
2010,07,07,03,38,12.70
2010,07,07,03,39,12.70
2010,07,07,03,40,12.70
2010,07,07,03,41,12.70
2010,07,07,03,42,12.70
2010,07,07,03,43,12.70
2010,07,07,03,44,12.70
2010,07,07,03,45,12.70
2010,07,07,03,46,12.70
2010,07,07,03,47,12.70
2010,07,07,03,48,12.70
2010,07,07,03,49,12.70
2010,07,07,03,50,12.70
2010,07,07,03,51,12.80
2010,07,07,03,52,12.80
2010,07,07,03,53,12.80
2010,07,07,03,54,12.90
2010,07,07,03,55,12.90
2010,07,07,03,56,12.90
2010,07,07,03,57,12.80
2010,07,07,03,58,12.80
2010,07,07,03,59,12.80
2010,07,07,04,00,12.80
2010,07,07,04,01,12.70
2010,07,07,04,02,12.70
2010,07,07,04,03,12.70
2010,07,07,04,04,12.70
2010,07,07,04,05,12.70
2010,07,07,04,06,12.70
2010,07,07,04,07,12.70
2010,07,07,04,08,12.70
2010,07,07,04,09,12.70
2010,07,07,04,10,12.80
2010,07,07,04,11,12.80
2010,07,07,04,12,12.90
2010,07,07,04,13,12.90
2010,07,07,04,14,12.90
2010,07,07,04,15,12.90
2010,07,07,04,16,13.00
2010,07,07,04,17,13.00
2010,07,07,04,18,13.00
2010,07,07,04,19,13.00
2010,07,07,04,20,13.00
2010,07,07,04,21,13.00
2010,07,07,04,22,13.00
2010,07,07,04,23,12.90
2010,07,07,04,24,12.90
2010,07,07,04,25,12.90
2010,07,07,04,26,12.90
2010,07,07,04,27,12.90
2010,07,07,04,28,12.90
2010,07,07,04,29,12.80
2010,07,07,04,30,12.80
2010,07,07,04,31,12.80
2010,07,07,04,32,12.80
2010,07,07,04,33,12.80
2010,07,07,04,34,12.80
2010,07,07,04,35,12.80
2010,07,07,04,36,12.80
2010,07,07,04,37,12.80
2010,07,07,04,38,12.70
2010,07,07,04,39,12.70
2010,07,07,04,40,12.70
2010,07,07,04,41,12.70
2010,07,07,04,42,12.70
2010,07,07,04,43,12.80
2010,07,07,04,44,12.80
2010,07,07,04,45,12.80
2010,07,07,04,46,12.80
2010,07,07,04,47,12.80
2010,07,07,04,48,12.80
2010,07,07,04,49,12.80
2010,07,07,04,50,12.80
2010,07,07,04,51,12.80
2010,07,07,04,52,12.80
2010,07,07,04,53,12.80
2010,07,07,04,54,12.80
2010,07,07,04,55,12.80
2010,07,07,04,56,12.80
2010,07,07,04,57,12.80
2010,07,07,04,58,12.70
2010,07,07,04,59,12.70
2010,07,07,05,00,12.70
2010,07,07,05,01,12.70
2010,07,07,05,02,12.70
2010,07,07,05,03,12.70
2010,07,07,05,04,12.70
2010,07,07,05,05,12.60
2010,07,07,05,06,12.60
2010,07,07,05,07,12.60
2010,07,07,05,08,12.60
2010,07,07,05,09,12.60
2010,07,07,05,10,12.60
2010,07,07,05,11,12.60
2010,07,07,05,12,12.60
2010,07,07,05,13,12.70
2010,07,07,05,14,12.70
2010,07,07,05,15,12.70
2010,07,07,05,16,12.70
2010,07,07,05,17,12.70
2010,07,07,05,18,12.80
2010,07,07,05,19,12.80
2010,07,07,05,20,12.80
2010,07,07,05,21,12.90
2010,07,07,05,22,12.90
2010,07,07,05,23,12.90
2010,07,07,05,24,12.90
2010,07,07,05,25,12.90
2010,07,07,05,26,12.90
2010,07,07,05,27,12.90
2010,07,07,05,28,12.90
2010,07,07,05,29,12.90
2010,07,07,05,30,12.90
2010,07,07,05,31,12.80
2010,07,07,05,32,12.80
2010,07,07,05,33,12.80
2010,07,07,05,34,12.80
2010,07,07,05,35,12.80
2010,07,07,05,36,12.80
2010,07,07,05,37,12.70
2010,07,07,05,38,12.70
2010,07,07,05,39,12.70
2010,07,07,05,40,12.70
2010,07,07,05,41,12.70
2010,07,07,05,42,12.60
2010,07,07,05,43,12.60
2010,07,07,05,44,12.60
2010,07,07,05,45,12.60
2010,07,07,05,46,12.60
2010,07,07,05,47,12.60
2010,07,07,05,48,12.60
2010,07,07,05,49,12.60
2010,07,07,05,50,12.60
2010,07,07,05,51,12.60
2010,07,07,05,52,12.60
2010,07,07,05,53,12.60
2010,07,07,05,54,12.60
2010,07,07,05,55,12.60
2010,07,07,05,56,12.60
2010,07,07,05,57,12.60
2010,07,07,05,58,12.60
2010,07,07,05,59,12.60
2010,07,07,06,00,12.60
2010,07,07,06,01,12.60
2010,07,07,06,02,12.70
2010,07,07,06,03,12.70
2010,07,07,06,04,12.70
2010,07,07,06,05,12.70
2010,07,07,06,06,12.70
2010,07,07,06,07,12.70
2010,07,07,06,08,12.70
2010,07,07,06,09,12.70
2010,07,07,06,10,12.70
2010,07,07,06,11,12.70
2010,07,07,06,12,12.70
2010,07,07,06,13,12.70
2010,07,07,06,14,12.70
2010,07,07,06,15,12.70
2010,07,07,06,16,12.70
2010,07,07,06,17,12.70
2010,07,07,06,18,12.70
2010,07,07,06,19,12.70
2010,07,07,06,20,12.70
2010,07,07,06,21,12.70
2010,07,07,06,22,12.70
2010,07,07,06,23,12.70
2010,07,07,06,24,12.70
2010,07,07,06,25,12.80
2010,07,07,06,26,12.80
2010,07,07,06,27,12.80
2010,07,07,06,28,12.80
2010,07,07,06,29,12.80
2010,07,07,06,30,12.80
2010,07,07,06,31,12.80
2010,07,07,06,32,12.80
2010,07,07,06,33,12.80
2010,07,07,06,34,12.80
2010,07,07,06,35,12.80
2010,07,07,06,36,12.80
2010,07,07,06,37,12.80
2010,07,07,06,38,12.90
2010,07,07,06,39,12.90
2010,07,07,06,40,13.00
2010,07,07,06,41,13.10
2010,07,07,06,42,13.20
2010,07,07,06,43,13.30
2010,07,07,06,44,13.30
2010,07,07,06,45,13.40
2010,07,07,06,46,13.40
2010,07,07,06,47,13.40
2010,07,07,06,48,13.40
2010,07,07,06,49,13.50
2010,07,07,06,50,13.50
2010,07,07,06,51,13.50
2010,07,07,06,52,13.60
2010,07,07,06,53,13.60
2010,07,07,06,54,13.60
2010,07,07,06,55,13.70
2010,07,07,06,56,13.70
2010,07,07,06,57,13.70
2010,07,07,06,58,13.80
2010,07,07,06,59,13.80
2010,07,07,07,00,13.80
2010,07,07,07,01,13.90
2010,07,07,07,02,13.90
2010,07,07,07,03,13.90
2010,07,07,07,04,14.00
2010,07,07,07,05,14.10
2010,07,07,07,06,14.20
2010,07,07,07,07,14.30
2010,07,07,07,08,14.40
2010,07,07,07,09,14.40
2010,07,07,07,10,14.50
2010,07,07,07,11,14.60
2010,07,07,07,12,14.70
2010,07,07,07,13,14.70
2010,07,07,07,14,14.80
2010,07,07,07,15,14.90
2010,07,07,07,16,14.90
2010,07,07,07,17,15.00
2010,07,07,07,18,15.00
2010,07,07,07,19,15.10
2010,07,07,07,20,15.20
2010,07,07,07,21,15.30
2010,07,07,07,22,15.40
2010,07,07,07,23,15.40
2010,07,07,07,24,15.50
2010,07,07,07,25,15.60
2010,07,07,07,26,15.70
2010,07,07,07,27,15.80
2010,07,07,07,28,15.90
2010,07,07,07,29,15.90
2010,07,07,07,30,16.00
2010,07,07,07,31,16.10
2010,07,07,07,32,16.20
2010,07,07,07,33,16.30
2010,07,07,07,34,16.40
2010,07,07,07,35,16.40
2010,07,07,07,36,16.50
2010,07,07,07,37,16.50
2010,07,07,07,38,16.60
2010,07,07,07,39,16.60
2010,07,07,07,40,16.70
2010,07,07,07,41,16.70
2010,07,07,07,42,16.80
2010,07,07,07,43,16.80
2010,07,07,07,44,16.90
2010,07,07,07,45,16.90
2010,07,07,07,46,16.90
2010,07,07,07,47,16.90
2010,07,07,07,48,16.90
2010,07,07,07,49,16.90
2010,07,07,07,50,16.90
2010,07,07,07,51,17.00
2010,07,07,07,52,17.00
2010,07,07,07,53,17.10
2010,07,07,07,54,17.10
2010,07,07,07,55,17.20
2010,07,07,07,56,17.30
2010,07,07,07,57,17.40
2010,07,07,07,58,17.60
2010,07,07,07,59,17.70
2010,07,07,08,00,17.90
2010,07,07,08,01,18.00
2010,07,07,08,02,18.20
2010,07,07,08,03,18.40
2010,07,07,08,04,18.50
2010,07,07,08,05,18.60
2010,07,07,08,06,18.60
2010,07,07,08,07,18.70
2010,07,07,08,08,18.80
2010,07,07,08,09,18.80
2010,07,07,08,10,18.90
2010,07,07,08,11,18.90
2010,07,07,08,12,19.00
2010,07,07,08,13,19.00
2010,07,07,08,14,19.10
2010,07,07,08,15,19.20
2010,07,07,08,16,19.20
2010,07,07,08,17,19.30
2010,07,07,08,18,19.40
2010,07,07,08,19,19.50
2010,07,07,08,20,19.60
2010,07,07,08,21,19.70
2010,07,07,08,22,19.80
2010,07,07,08,23,19.90
2010,07,07,08,24,20.00
2010,07,07,08,25,20.10
2010,07,07,08,26,20.20
2010,07,07,08,27,20.30
2010,07,07,08,28,20.50
2010,07,07,08,29,20.60
2010,07,07,08,30,20.70
2010,07,07,08,31,20.80
2010,07,07,08,32,20.90
2010,07,07,08,33,21.00
2010,07,07,08,34,21.00
2010,07,07,08,35,21.10
2010,07,07,08,36,21.20
2010,07,07,08,37,21.30
2010,07,07,08,38,21.40
2010,07,07,08,39,21.60
2010,07,07,08,40,21.70
2010,07,07,08,41,21.70
2010,07,07,08,42,21.80
2010,07,07,08,43,21.80
2010,07,07,08,44,21.80
2010,07,07,08,45,21.90
2010,07,07,08,46,21.90
2010,07,07,08,47,21.90
2010,07,07,08,48,21.90
2010,07,07,08,49,21.90
2010,07,07,08,50,21.90
2010,07,07,08,51,21.90
2010,07,07,08,52,22.00
2010,07,07,08,53,22.10
2010,07,07,08,54,22.20
2010,07,07,08,55,22.20
2010,07,07,08,56,22.30
2010,07,07,08,57,22.30
2010,07,07,08,58,22.30
2010,07,07,08,59,22.40
2010,07,07,09,00,22.40
2010,07,07,09,01,22.40
2010,07,07,09,02,22.50
2010,07,07,09,03,22.50
2010,07,07,09,04,22.50
2010,07,07,09,05,22.60
2010,07,07,09,06,22.60
2010,07,07,09,07,22.60
2010,07,07,09,08,22.60
2010,07,07,09,09,22.70
2010,07,07,09,10,22.70
2010,07,07,09,11,22.80
2010,07,07,09,12,22.90
2010,07,07,09,13,22.90
2010,07,07,09,14,23.00
2010,07,07,09,15,23.00
2010,07,07,09,16,23.10
2010,07,07,09,17,23.20
2010,07,07,09,18,23.20
2010,07,07,09,19,23.30
2010,07,07,09,20,23.30
2010,07,07,09,21,23.30
2010,07,07,09,22,23.30
2010,07,07,09,23,23.40
2010,07,07,09,24,23.40
2010,07,07,09,25,23.40
2010,07,07,09,26,23.40
2010,07,07,09,27,23.40
2010,07,07,09,28,23.40
2010,07,07,09,29,23.30
2010,07,07,09,30,23.30
2010,07,07,09,31,23.30
2010,07,07,09,32,23.20
2010,07,07,09,33,23.10
2010,07,07,09,34,23.10
2010,07,07,09,35,23.00
2010,07,07,09,36,22.90
2010,07,07,09,37,22.90
2010,07,07,09,38,22.80
2010,07,07,09,39,22.70
2010,07,07,09,40,22.70
2010,07,07,09,41,22.60
2010,07,07,09,42,22.60
2010,07,07,09,43,22.50
2010,07,07,09,44,22.50
2010,07,07,09,45,22.40
2010,07,07,09,46,22.40
2010,07,07,09,47,22.30
2010,07,07,09,48,22.30
2010,07,07,09,49,22.30
2010,07,07,09,50,22.30
2010,07,07,09,51,22.30
2010,07,07,09,52,22.30
2010,07,07,09,53,22.30
2010,07,07,09,54,22.30
2010,07,07,09,55,22.40
2010,07,07,09,56,22.40
2010,07,07,09,57,22.40
2010,07,07,09,58,22.40
2010,07,07,09,59,22.50
2010,07,07,10,00,22.50
2010,07,07,10,01,22.50
2010,07,07,10,02,22.50
2010,07,07,10,03,22.50
2010,07,07,10,04,22.50
2010,07,07,10,05,22.40
2010,07,07,10,06,22.40
2010,07,07,10,07,22.40
2010,07,07,10,08,22.40
2010,07,07,10,09,22.40
2010,07,07,10,10,22.40
2010,07,07,10,11,22.40
2010,07,07,10,12,22.40
2010,07,07,10,13,22.40
2010,07,07,10,14,22.40
2010,07,07,10,15,22.40
2010,07,07,10,16,22.40
2010,07,07,10,17,22.50
2010,07,07,10,18,22.50
2010,07,07,10,19,22.60
2010,07,07,10,20,22.60
2010,07,07,10,21,22.60
2010,07,07,10,22,22.70
2010,07,07,10,23,22.70
2010,07,07,10,24,22.80
2010,07,07,10,25,22.80
2010,07,07,10,26,22.80
2010,07,07,10,27,22.80
2010,07,07,10,28,22.80
2010,07,07,10,29,22.80
2010,07,07,10,30,22.90
2010,07,07,10,31,22.90
2010,07,07,10,32,22.90
2010,07,07,10,33,22.90
2010,07,07,10,34,22.90
2010,07,07,10,35,22.90
2010,07,07,10,36,22.90
2010,07,07,10,37,22.90
2010,07,07,10,38,23.00
2010,07,07,10,39,23.00
2010,07,07,10,40,22.90
2010,07,07,10,41,22.90
2010,07,07,10,42,22.80
2010,07,07,10,43,22.80
2010,07,07,10,44,22.80
2010,07,07,10,45,22.70
2010,07,07,10,46,22.70
2010,07,07,10,47,22.70
2010,07,07,10,48,22.70
2010,07,07,10,49,22.70
2010,07,07,10,50,22.60
2010,07,07,10,51,22.60
2010,07,07,10,52,22.60
2010,07,07,10,53,22.50
2010,07,07,10,54,22.50
2010,07,07,10,55,22.50
2010,07,07,10,56,22.60
2010,07,07,10,57,22.50
2010,07,07,10,58,22.50
2010,07,07,10,59,22.40
2010,07,07,11,00,22.40
2010,07,07,11,01,22.40
2010,07,07,11,02,22.40
2010,07,07,11,03,22.30
2010,07,07,11,04,22.30
2010,07,07,11,05,22.20
2010,07,07,11,06,22.20
2010,07,07,11,07,22.10
2010,07,07,11,08,22.10
2010,07,07,11,09,22.10
2010,07,07,11,10,22.10
2010,07,07,11,11,22.10
2010,07,07,11,12,22.10
2010,07,07,11,13,22.10
2010,07,07,11,14,22.10
2010,07,07,11,15,22.00
2010,07,07,11,16,22.00
2010,07,07,11,17,21.90
2010,07,07,11,18,21.90
2010,07,07,11,19,21.90
2010,07,07,11,20,21.90
2010,07,07,11,21,22.00
2010,07,07,11,22,22.10
2010,07,07,11,23,22.10
2010,07,07,11,24,22.10
2010,07,07,11,25,22.10
2010,07,07,11,26,22.10
2010,07,07,11,27,22.20
2010,07,07,11,28,22.20
2010,07,07,11,29,22.30
2010,07,07,11,30,22.30
2010,07,07,11,31,22.40
2010,07,07,11,32,22.50
2010,07,07,11,33,22.60
2010,07,07,11,34,22.70
2010,07,07,11,35,22.80
2010,07,07,11,36,22.90
2010,07,07,11,37,22.90
2010,07,07,11,38,22.90
2010,07,07,11,39,22.90
2010,07,07,11,40,23.00
2010,07,07,11,41,23.10
2010,07,07,11,42,23.10
2010,07,07,11,43,23.20
2010,07,07,11,44,23.20
2010,07,07,11,45,23.20
2010,07,07,11,46,23.20
2010,07,07,11,47,23.10
2010,07,07,11,48,23.00
2010,07,07,11,49,22.90
2010,07,07,11,50,22.80
2010,07,07,11,51,22.80
2010,07,07,11,52,22.80
2010,07,07,11,53,22.80
2010,07,07,11,54,22.80
2010,07,07,11,55,22.80
2010,07,07,11,56,22.80
2010,07,07,11,57,22.80
2010,07,07,11,58,22.80
2010,07,07,11,59,22.70
2010,07,07,12,00,22.70
2010,07,07,12,01,22.70
2010,07,07,12,02,22.60
2010,07,07,12,03,22.60
2010,07,07,12,04,22.50
2010,07,07,12,05,22.50
2010,07,07,12,06,22.40
2010,07,07,12,07,22.40
2010,07,07,12,08,22.30
2010,07,07,12,09,22.20
2010,07,07,12,10,22.20
2010,07,07,12,11,22.10
2010,07,07,12,12,22.10
2010,07,07,12,13,22.00
2010,07,07,12,14,21.90
2010,07,07,12,15,21.80
2010,07,07,12,16,21.80
2010,07,07,12,17,21.70
2010,07,07,12,18,21.70
2010,07,07,12,19,21.70
2010,07,07,12,20,21.70
2010,07,07,12,21,21.70
2010,07,07,12,22,21.70
2010,07,07,12,23,21.70
2010,07,07,12,24,21.70
2010,07,07,12,25,21.60
2010,07,07,12,26,21.50
2010,07,07,12,27,21.50
2010,07,07,12,28,21.60
2010,07,07,12,29,21.60
2010,07,07,12,30,21.70
2010,07,07,12,31,21.80
2010,07,07,12,32,21.80
2010,07,07,12,33,21.80
2010,07,07,12,34,21.90
2010,07,07,12,35,21.90
2010,07,07,12,36,21.90
2010,07,07,12,37,22.00
2010,07,07,12,38,22.00
2010,07,07,12,39,22.10
2010,07,07,12,40,22.30
2010,07,07,12,41,22.40
2010,07,07,12,42,22.40
2010,07,07,12,43,22.40
2010,07,07,12,44,22.40
2010,07,07,12,45,22.40
2010,07,07,12,46,22.40
2010,07,07,12,47,22.40
2010,07,07,12,48,22.30
2010,07,07,12,49,22.30
2010,07,07,12,50,22.30
2010,07,07,12,51,22.20
2010,07,07,12,52,22.10
2010,07,07,12,53,22.10
2010,07,07,12,54,22.10
2010,07,07,12,55,22.10
2010,07,07,12,56,22.10
2010,07,07,12,57,22.10
2010,07,07,12,58,22.10
2010,07,07,12,59,22.00
2010,07,07,13,00,22.10
2010,07,07,13,01,22.10
2010,07,07,13,02,22.20
2010,07,07,13,03,22.20
2010,07,07,13,04,22.20
2010,07,07,13,05,22.20
2010,07,07,13,06,22.20
2010,07,07,13,07,22.30
2010,07,07,13,08,22.50
2010,07,07,13,09,22.50
2010,07,07,13,10,22.60
2010,07,07,13,11,22.70
2010,07,07,13,12,22.80
2010,07,07,13,13,22.80
2010,07,07,13,14,22.90
2010,07,07,13,15,23.00
2010,07,07,13,16,23.00
2010,07,07,13,17,23.10
2010,07,07,13,18,23.20
2010,07,07,13,19,23.20
2010,07,07,13,20,23.30
2010,07,07,13,21,23.30
2010,07,07,13,22,23.30
2010,07,07,13,23,23.30
2010,07,07,13,24,23.30
2010,07,07,13,25,23.30
2010,07,07,13,26,23.20
2010,07,07,13,27,23.10
2010,07,07,13,28,23.00
2010,07,07,13,29,22.90
2010,07,07,13,30,22.80
2010,07,07,13,31,22.70
2010,07,07,13,32,22.60
2010,07,07,13,33,22.60
2010,07,07,13,34,22.50
2010,07,07,13,35,22.40
2010,07,07,13,36,22.40
2010,07,07,13,37,22.40
2010,07,07,13,38,22.30
2010,07,07,13,39,22.30
2010,07,07,13,40,22.30
2010,07,07,13,41,22.20
2010,07,07,13,42,22.10
2010,07,07,13,43,22.00
2010,07,07,13,44,22.00
2010,07,07,13,45,21.90
2010,07,07,13,46,21.80
2010,07,07,13,47,21.70
2010,07,07,13,48,21.60
2010,07,07,13,49,21.60
2010,07,07,13,50,21.60
2010,07,07,13,51,21.60
2010,07,07,13,52,21.60
2010,07,07,13,53,21.60
2010,07,07,13,54,21.60
2010,07,07,13,55,21.60
2010,07,07,13,56,21.70
2010,07,07,13,57,21.70
2010,07,07,13,58,21.70
2010,07,07,13,59,21.70
2010,07,07,14,00,21.70
2010,07,07,14,01,21.70
2010,07,07,14,02,21.70
2010,07,07,14,03,21.70
2010,07,07,14,04,21.70
2010,07,07,14,05,21.70
2010,07,07,14,06,21.70
2010,07,07,14,07,21.70
2010,07,07,14,08,21.60
2010,07,07,14,09,21.60
2010,07,07,14,10,21.60
2010,07,07,14,11,21.60
2010,07,07,14,12,21.60
2010,07,07,14,13,21.60
2010,07,07,14,14,21.60
2010,07,07,14,15,21.50
2010,07,07,14,16,21.40
2010,07,07,14,17,21.40
2010,07,07,14,18,21.30
2010,07,07,14,19,21.30
2010,07,07,14,20,21.30
2010,07,07,14,21,21.30
2010,07,07,14,22,21.30
2010,07,07,14,23,21.30
2010,07,07,14,24,21.30
2010,07,07,14,25,21.30
2010,07,07,14,26,21.30
2010,07,07,14,27,21.20
2010,07,07,14,28,21.10
2010,07,07,14,29,21.00
2010,07,07,14,30,21.00
2010,07,07,14,31,20.90
2010,07,07,14,32,20.90
2010,07,07,14,33,21.00
2010,07,07,14,34,21.00
2010,07,07,14,35,21.10
2010,07,07,14,36,21.20
2010,07,07,14,37,21.10
2010,07,07,14,38,21.10
2010,07,07,14,39,21.10
2010,07,07,14,40,21.10
2010,07,07,14,41,21.20
2010,07,07,14,42,21.20
2010,07,07,14,43,21.30
2010,07,07,14,44,21.40
2010,07,07,14,45,21.40
2010,07,07,14,46,21.40
2010,07,07,14,47,21.50
2010,07,07,14,48,21.50
2010,07,07,14,49,21.60
2010,07,07,14,50,21.60
2010,07,07,14,51,21.70
2010,07,07,14,52,21.90
2010,07,07,14,53,22.00
2010,07,07,14,54,22.00
2010,07,07,14,55,22.10
2010,07,07,14,56,22.20
2010,07,07,14,57,22.30
2010,07,07,14,58,22.50
2010,07,07,14,59,22.70
2010,07,07,15,00,22.80
2010,07,07,15,01,22.90
2010,07,07,15,02,22.90
2010,07,07,15,03,23.00
2010,07,07,15,04,23.00
2010,07,07,15,05,23.00
2010,07,07,15,06,23.00
2010,07,07,15,07,23.10
2010,07,07,15,08,23.20
2010,07,07,15,09,23.20
2010,07,07,15,10,23.40
2010,07,07,15,11,23.50
2010,07,07,15,12,23.70
2010,07,07,15,13,23.80
2010,07,07,15,14,24.00
2010,07,07,15,15,24.10
2010,07,07,15,16,24.20
2010,07,07,15,17,24.30
2010,07,07,15,18,24.40
2010,07,07,15,19,24.40
2010,07,07,15,20,24.50
2010,07,07,15,21,24.50
2010,07,07,15,22,24.50
2010,07,07,15,23,24.50
2010,07,07,15,24,24.40
2010,07,07,15,25,24.40
2010,07,07,15,26,24.40
2010,07,07,15,27,24.30
2010,07,07,15,28,24.20
2010,07,07,15,29,24.10
2010,07,07,15,30,24.10
2010,07,07,15,31,24.10
2010,07,07,15,32,24.10
2010,07,07,15,33,24.20
2010,07,07,15,34,24.20
2010,07,07,15,35,24.20
2010,07,07,15,36,24.30
2010,07,07,15,37,24.30
2010,07,07,15,38,24.40
2010,07,07,15,39,24.50
2010,07,07,15,40,24.60
2010,07,07,15,41,24.70
2010,07,07,15,42,24.80
2010,07,07,15,43,24.80
2010,07,07,15,44,24.70
2010,07,07,15,45,24.80
2010,07,07,15,46,24.80
2010,07,07,15,47,24.90
2010,07,07,15,48,25.00
2010,07,07,15,49,25.10
2010,07,07,15,50,25.20
2010,07,07,15,51,25.10
2010,07,07,15,52,24.90
2010,07,07,15,53,24.80
2010,07,07,15,54,24.80
2010,07,07,15,55,24.60
2010,07,07,15,56,24.60
2010,07,07,15,57,24.70
2010,07,07,15,58,24.60
2010,07,07,15,59,24.50
2010,07,07,16,00,24.60
2010,07,07,16,01,24.70
2010,07,07,16,02,24.80
2010,07,07,16,03,24.90
2010,07,07,16,04,25.00
2010,07,07,16,05,25.00
2010,07,07,16,06,24.90
2010,07,07,16,07,24.80
2010,07,07,16,08,24.70
2010,07,07,16,09,24.60
2010,07,07,16,10,24.60
2010,07,07,16,11,24.60
2010,07,07,16,12,24.60
2010,07,07,16,13,24.60
2010,07,07,16,14,24.70
2010,07,07,16,15,24.60
2010,07,07,16,16,24.60
2010,07,07,16,17,24.60
2010,07,07,16,18,24.50
2010,07,07,16,19,24.60
2010,07,07,16,20,24.60
2010,07,07,16,21,24.70
2010,07,07,16,22,24.80
2010,07,07,16,23,24.90
2010,07,07,16,24,24.90
2010,07,07,16,25,24.90
2010,07,07,16,26,24.90
2010,07,07,16,27,25.00
2010,07,07,16,28,25.10
2010,07,07,16,29,25.20
2010,07,07,16,30,25.20
2010,07,07,16,31,25.20
2010,07,07,16,32,25.10
2010,07,07,16,33,25.20
2010,07,07,16,34,25.20
2010,07,07,16,35,25.20
2010,07,07,16,36,25.20
2010,07,07,16,37,25.20
2010,07,07,16,38,25.20
2010,07,07,16,39,25.30
2010,07,07,16,40,25.30
2010,07,07,16,41,25.30
2010,07,07,16,42,25.30
2010,07,07,16,43,25.30
2010,07,07,16,44,25.30
2010,07,07,16,45,25.30
2010,07,07,16,46,25.40
2010,07,07,16,47,25.40
2010,07,07,16,48,25.30
2010,07,07,16,49,25.30
2010,07,07,16,50,25.30
2010,07,07,16,51,25.30
2010,07,07,16,52,25.20
2010,07,07,16,53,25.20
2010,07,07,16,54,25.30
2010,07,07,16,55,25.30
2010,07,07,16,56,25.30
2010,07,07,16,57,25.30
2010,07,07,16,58,25.30
2010,07,07,16,59,25.30
2010,07,07,17,00,25.40
2010,07,07,17,01,25.40
2010,07,07,17,02,25.40
2010,07,07,17,03,25.30
2010,07,07,17,04,25.30
2010,07,07,17,05,25.30
2010,07,07,17,06,25.30
2010,07,07,17,07,25.40
2010,07,07,17,08,25.40
2010,07,07,17,09,25.40
2010,07,07,17,10,25.40
2010,07,07,17,11,25.40
2010,07,07,17,12,25.40
2010,07,07,17,13,25.30
2010,07,07,17,14,25.30
2010,07,07,17,15,25.20
2010,07,07,17,16,25.20
2010,07,07,17,17,25.20
2010,07,07,17,18,25.30
2010,07,07,17,19,25.30
2010,07,07,17,20,25.30
2010,07,07,17,21,25.30
2010,07,07,17,22,25.20